星链-3227 (STARLINK-3227 )

导读

STARLINK-3227是美国SpaceX公司星链星座的一员,于2021年12月2日发射入轨。星链项目计划部署数万颗低轨卫星,旨在为全球提供高速低延迟互联网服务,尤其覆盖地面基础设施难以到达的偏远区域。作为巨型星座的组成部分,该卫星运行于近地轨道,助力实现全球宽带网络覆盖,同时也因太空拥堵、天文观测干扰等问题引发行业讨论。

Basic Information
目录编号:
49765
目录名称:
STARLINK-3227
国际标识:
2021-115AT
轨道中心:
EARTH
卫星名称:
星链-3227
卫星全名:
星链-3227 (STARLINK-3227 )
卫星状态:
在轨 (已飞行1746 天)
发射日期:
2021-12-02 UTC
国别 :
美国 (US)
星等 :
--
This satellite is enrolled in the Space Conjunction Data Service (SCDS) and the current flight risk assessment level is: High Risk
Orbit Information
数据来源 国际轨道数据
星历时间: 2026-09-12T15:07:34+0800
21小时前
查看轨道信息
半长轴: 6848.904km
偏心率: 0.0001147
轨道倾角: 53.161°
近地点辐角 80.626°
升交点赤经 7.407°
平近点角 279.488°
近地点: 469.981km
远地点: 471.553km
周期: 94.014分钟
每日圈数: 15.316911
Detailed Information
固有亮度:
5
最大亮度:
2.5
卫星平台:
Starlink v1.5
覆盖范围:
全球
运营商:
太空探索技术公司
运营商所在国:
美国
制造商(研发单位):
太空探索技术公司
制造商所在国:
美国
使用方式:
暂无
Satellite Introduction
星链(Starlink)计划是由太空探索技术公司(SpaceX)提出的一个巨型低轨卫星互联网星座项目,计划在2019年至2024年间在太空搭建由约1.2万颗卫星组成的“星链”网络,其中1584颗将部署在地球上空550千米处的近地轨道,并从2020年开始工作。该卫星仍在工作。
2D Orbit Map
3D Orbit Map
Orbit Altitude Analysis Chart
Orbit Inclination Analysis Chart
Orbit Comprehensive Analysis Chart
View Comprehensive Chart
Conjunction Data List
Event ID Objects TCA Miss Dist (km) Collision Risk Probability Collision Risk Index (CRI) Action
CDM_260913-185104-976506-541622
2026-09-13T
18:51:52+0000
0.489 km
远距离
1.463134E-4 高风险 0.78
CDM_260914-050204-976506-541622
2026-09-14T
05:02:35+0000
1.172 km
极远距离
9.825874E-6 低风险 0.55
CDM_260912-220704-976506-629524
2026-09-12T
22:07:30+0000
1.572 km
极远距离
1.268079E-6 低风险 0.37
CDM_260914-032804-976506-541621
2026-09-14T
03:28:37+0000
2.512 km
极远距离
1.182934E-6 低风险 0.36
CDM_260913-202504-976506-541622
2026-09-13T
20:25:49+0000
2.955 km
极远距离
9.392645E-7 极低风险 0.34
Miss Distance Evolution Trend with All Objects
Collision Probability Evolution Trend with All Objects